[[{"header":{"parameterUnit":"m.s-1","parameterCategory":1,"la1":30.2991,"la2":30.254,"lo1":-89.0895,"lo2":-89.0444,"dy":0.0017,"dx":0.0017,"nx":28,"ny":28,"refTime":"2024-07-04T09:00:00:Z","depth":0,"parameterNumber":2,"parameterNumberName":"U-component_of_WINDS"},"data":[0,0,0,0,0,0,0,0,0,0,0,0,0,0,0,0,0,0,0,0,0,0,0,0,0,0,0,0,0,0,0,0,0,0,0,0,0,0,0,0,0,0,0,0,0,0,0,0,0,0,0,0,0,0,0,0,0,0,0.3297,0.3298,0,0.3391,0.3392,0.3393,0.3448,0.3448,0.3449,0.3449,0.355,0.3552,0.3555,0,0,0,0,0,0,0,0,0,0,0,0,0,0.3167,0.3169,0.3297,0.3298,0.3299,0.3391,0.3392,0.3394,0.3448,0.3448,0.3449,0.3449,0.3549,0.3552,0.3555,0,0,0,0,0,0,0,0,0,0,0,0,0,0.3239,0.317,0.3296,0.3337,0.3342,0.3391,0.3392,0.3394,0.3448,0.3448,0.3449,0.3449,0.3548,0.3552,0.3556,0.3573,0,0,0.3567,0.3569,0,0,0,0,0,0,0,0,0.3235,0.3243,0.333,0.3334,0.334,0.3408,0.3384,0.3454,0.3448,0.3408,0.3449,0.3449,0.3503,0.351,0.3528,0.3577,0.3582,0.3567,0.357,0.3571,0.3572,0,0,0,0,0,0,0,0.3229,0.324,0.3334,0.3331,0.3337,0.3352,0.3362,0.3397,0.3453,0.3411,0.3416,0.3426,0.3506,0.3524,0.353,0.3583,0.3567,0.3571,0.3573,0.3574,0.3652,0.3651,0,0,0,0,0,0,0.3217,0.3235,0.3331,0.3337,0.3287,0.3354,0.3366,0.3386,0.3452,0.3463,0.3425,0.3428,0.3517,0.3526,0.3534,0.3558,0.3571,0.3575,0.3577,0.3652,0.3651,0.3651,0,0,0,0,0,0,0.3214,0.3226,0.3327,0.3287,0.3301,0.3356,0.3378,0.3388,0.3406,0.3463,0.3473,0.3434,0.3518,0.3529,0.3562,0.3562,0.3576,0.358,0.3652,0.3652,0.3651,0.3606,0,0,0,0,0,0,0.321,0.3224,0.323,0.3287,0.3303,0.3353,0.3378,0.3389,0.3412,0.3416,0.3473,0.3483,0.3519,0.3556,0.3566,0.3568,0.3583,0.3652,0.3652,0.3651,0.3608,0.3604,0.3601,0,0,0,0,0,0.3206,0.3215,0.323,0.3242,0.3312,0.3353,0.3362,0.3402,0.3411,0.3419,0.3455,0.3481,0.3561,0.3559,0.3571,0.3574,0.3652,0.3652,0.3651,0.3609,0.3605,0.3601,0,0,0,0,0,0,0.3159,0.3223,0.3241,0.3269,0.3304,0.3362,0.3372,0.3396,0.3431,0.3434,0.3482,0.3495,0.3524,0.3552,0.3549,0.3593,0.3609,0.3611,0.3573,0.357,0.3567,0.3559,0.3586,0,0,0,0,0,0.3151,0.3178,0.3233,0.3252,0.3269,0.3317,0.3336,0.3363,0.3403,0.3419,0.3458,0.3497,0.3531,0.3552,0.3586,0.3612,0.3626,0.362,0.3616,0.3613,0.3614,0.363,0.3628,0.365,0.365,0.365,0,0,0.3137,0.3175,0.3189,0.3244,0.3275,0.3302,0.333,0.3358,0.3378,0.3424,0.3457,0.3487,0.3534,0.3563,0.3578,0.3588,0.3611,0.3613,0.361,0.3613,0.3629,0.3627,0.3625,0.3649,0.3649,0.365,0,0,0.3124,0.3156,0.3175,0.3205,0.3251,0.3282,0.3287,0.334,0.3361,0.3395,0.343,0.3456,0.3513,0.3544,0.3568,0.3566,0.3591,0.3576,0.3558,0.3573,0.3571,0.357,0.3568,0.3567,0.3576,0.3576,0.3576,0,0.3101,0.3141,0.3182,0.3207,0.323,0.3271,0.3291,0.3318,0.3374,0.3389,0.3399,0.347,0.3505,0.3542,0.3541,0.3559,0.3566,0.3569,0.3568,0.3567,0.3566,0.3566,0.3565,0.3574,0.3574,0.3575,0.3575,0,0.311,0.3138,0.3148,0.3198,0.3223,0.3245,0.329,0.331,0.3334,0.3365,0.3399,0.3441,0.3484,0.3495,0.3521,0.3536,0.354,0.3558,0.3575,0.3561,0.3561,0.3562,0.3571,0.3572,0.3572,0.3573,0,0,0.3071,0.3142,0.3145,0.3168,0.3221,0.3244,0.3269,0.3309,0.3325,0.3362,0.3384,0.343,0.3447,0.3473,0.3503,0.3515,0.351,0.3532,0.3534,0.3526,0.3529,0.3515,0.3514,0.3527,0.3527,0.3527,0.3525,0,0.3066,0.311,0.3146,0.3178,0.3204,0.3243,0.3264,0.3299,0.3329,0.3356,0.339,0.3422,0.3441,0.3457,0.3471,0.3507,0.3511,0.3508,0.3549,0.3549,0.3535,0.3514,0.3499,0.3495,0.3525,0.3525,0.3525,0,0.3065,0.3098,0.3131,0.3181,0.3194,0.3212,0.3251,0.3277,0.3318,0.3339,0.3367,0.3397,0.3426,0.344,0.348,0.3477,0.3496,0.3516,0.3517,0.3522,0.3536,0.3518,0.3495,0.3493,0.3526,0.3526,0.3526,0,0.3033,0.3086,0.3112,0.3131,0.319,0.3201,0.3227,0.3268,0.329,0.3325,0.3339,0.3378,0.3399,0.3428,0.3468,0.3475,0.3504,0.3521,0.3522,0.3521,0.3526,0.3525,0.3505,0.3539,0.3539,0.3539,0.3539,0,0.3023,0.3041,0.3098,0.3114,0.3136,0.3179,0.32,0.3229,0.3265,0.3288,0.3325,0.3346,0.3397,0.3425,0.3456,0.3484,0.3494,0.3512,0.352,0.3508,0.3506,0.3521,0.3522,0.3539,0.3539,0.3539,0.3539,0,0.299,0.3028,0.306,0.3112,0.3126,0.314,0.3185,0.3203,0.3234,0.3263,0.3272,0.3321,0.3356,0.3398,0.3447,0.3468,0.3492,0.3505,0.3478,0.3482,0.348,0.348,0.3469,0.3469,0.3503,0.3502,0.3502,0,0.298,0.2995,0.3049,0.3066,0.309,0.3118,0.3139,0.3182,0.3203,0.325,0.3262,0.3299,0.3331,0.3384,0.3424,0.3461,0.3475,0.3469,0.3481,0.3468,0.3474,0.3473,0.3474,0.3465,0.3465,0.3464,0.3464,0,0.296,0.2978,0.3007,0.3043,0.3067,0.3098,0.313,0.3143,0.3192,0.3214,0.3249,0.3273,0.3321,0.3357,0.3399,0.3427,0.3453,0.3459,0.3462,0.345,0.3433,0.3441,0.3468,0.346,0.346,0.346,0.3461,0.3461,0.2938,0.2953,0.2992,0.3024,0.3052,0.3081,0.31,0.3133,0.3162,0.3203,0.3227,0.326,0.3301,0.336,0.3386,0.3414,0.3424,0.3427,0.3428,0.3428,0.3423,0.3428,0.3422,0.3422,0.3422,0.3422,0.3422,0,0.2919,0.2946,0.2974,0.3017,0.3042,0.3063,0.31,0.3119,0.3148,0.3183,0.3213,0.3252,0.3287,0.333,0.3368,0.3381,0.3395,0.339,0.3389,0.3395,0.3413,0.3407,0.3378,0.3378,0.3378,0.3378,0.3378,0.3378,0.2912,0.2937,0.296,0.3,0.3028,0.306,0.3079,0.3106,0.3134,0.3176,0.3204,0.3231,0.327,0.331,0.3343,0.3355,0.3367,0.3359,0.3374,0.339,0.3394,0.3398,0.3392,0.3361,0.3361,0.3354,0.3354,0.3354]},{"header":{"parameterUnit":"m.s-1","parameterCategory":1,"la1":30.2991,"la2":30.254,"lo1":-89.0895,"lo2":-89.0444,"dy":0.0017,"dx":0.0017,"nx":28,"ny":28,"refTime":"2024-07-04T09:00:00:Z","depth":0,"parameterNumber":3,"parameterNumberName":"V-component_of_WINDS"},"data":[0,0,0,0,0,0,0,0,0,0,0,0,0,0,0,0,0,0,0,0,0,0,0,0,0,0,0,0,0,0,0,0,0,0,0,0,0,0,0,0,0,0,0,0,0,0,0,0,0,0,0,0,0,0,0,0,0,0,2.158,2.158,0,2.1575,2.1575,2.1575,2.1583,2.1583,2.1584,2.1584,2.1578,2.1577,2.1577,0,0,0,0,0,0,0,0,0,0,0,0,0,2.1596,2.1596,2.158,2.158,2.158,2.1575,2.1575,2.1575,2.1583,2.1583,2.1584,2.1584,2.1578,2.1577,2.1577,0,0,0,0,0,0,0,0,0,0,0,0,0,2.159,2.1596,2.158,2.1584,2.1584,2.1575,2.1575,2.1575,2.1583,2.1583,2.1584,2.1584,2.1578,2.1577,2.1577,2.1564,0,0,2.1575,2.1574,0,0,0,0,0,0,0,0,2.159,2.1589,2.1583,2.1583,2.1584,2.158,2.1578,2.1571,2.1583,2.1583,2.1584,2.1585,2.1578,2.1577,2.1575,2.1563,2.1563,2.1575,2.1574,2.1574,2.1574,0,0,0,0,0,0,0,2.1591,2.159,2.1578,2.1583,2.1583,2.1585,2.1585,2.1577,2.1578,2.1583,2.1584,2.1583,2.1578,2.1576,2.1575,2.1563,2.1575,2.1574,2.1574,2.1573,2.1539,2.1538,0,0,0,0,0,0,2.1591,2.159,2.1578,2.1578,2.1588,2.1584,2.1584,2.1581,2.1578,2.1578,2.1583,2.1584,2.1577,2.1576,2.1575,2.1559,2.1574,2.1573,2.1573,2.1539,2.1539,2.1538,0,0,0,0,0,0,2.1591,2.159,2.1578,2.1584,2.1583,2.1584,2.158,2.158,2.1578,2.1578,2.1578,2.158,2.1577,2.1576,2.1566,2.1559,2.1573,2.1572,2.154,2.1539,2.1539,2.1527,0,0,0,0,0,0,2.1592,2.159,2.1585,2.1584,2.1582,2.157,2.158,2.158,2.1577,2.1578,2.1576,2.1576,2.1578,2.1567,2.1566,2.1558,2.1572,2.1541,2.154,2.1539,2.1528,2.1526,2.1524,0,0,0,0,0,2.1592,2.1582,2.1585,2.1584,2.1577,2.157,2.1569,2.1571,2.1577,2.1572,2.1571,2.1576,2.156,2.1566,2.1564,2.1557,2.1541,2.154,2.1539,2.1529,2.1526,2.1524,0,0,0,0,0,0,2.1583,2.1582,2.1585,2.1575,2.1572,2.1571,2.1565,2.1569,2.1564,2.1565,2.1568,2.1568,2.1557,2.1556,2.1563,2.1543,2.1551,2.155,2.1544,2.1542,2.154,2.154,2.1571,0,0,0,0,0,2.158,2.1574,2.1574,2.1565,2.1563,2.1564,2.1561,2.1563,2.1561,2.156,2.1559,2.1556,2.155,2.1546,2.1541,2.1528,2.1527,2.1522,2.152,2.1518,2.1517,2.1509,2.1506,2.1534,2.1534,2.1534,0,0,2.1573,2.1572,2.1568,2.1563,2.1561,2.1554,2.1563,2.1557,2.1552,2.1558,2.1549,2.1548,2.1545,2.1533,2.1528,2.1532,2.1508,2.1517,2.1515,2.1515,2.1507,2.1504,2.1502,2.1534,2.1534,2.1534,0,0,2.1557,2.1556,2.1547,2.1545,2.1543,2.1543,2.1541,2.154,2.1539,2.153,2.1534,2.1529,2.1519,2.1516,2.1513,2.1495,2.1499,2.1494,2.1483,2.1475,2.1473,2.1471,2.1464,2.1461,2.1492,2.1492,2.1492,0,2.1548,2.1539,2.1543,2.1535,2.1532,2.1538,2.1529,2.1527,2.1523,2.152,2.1525,2.1512,2.151,2.1498,2.1493,2.1491,2.1488,2.1494,2.1473,2.1471,2.1469,2.1462,2.146,2.1491,2.1492,2.1492,2.1492,0,2.1529,2.1522,2.1516,2.1511,2.1508,2.15,2.1501,2.1497,2.1499,2.1499,2.1489,2.1487,2.1481,2.1478,2.1481,2.1465,2.1468,2.1473,2.1481,2.1466,2.1459,2.1457,2.149,2.1491,2.1491,2.1491,0,0,2.1506,2.1504,2.1501,2.1499,2.1496,2.1491,2.1482,2.1477,2.1473,2.1469,2.1462,2.1453,2.1457,2.1454,2.1456,2.1449,2.1434,2.1455,2.1455,2.145,2.1416,2.1412,2.1409,2.1437,2.1436,2.1436,2.1416,0,2.149,2.1476,2.1478,2.1464,2.1458,2.1463,2.1456,2.1453,2.1453,2.1447,2.1447,2.144,2.1447,2.1445,2.1438,2.1437,2.1427,2.1439,2.1429,2.1428,2.1429,2.1405,2.1401,2.1383,2.1414,2.1413,2.1413,0,2.1468,2.1464,2.145,2.1447,2.1444,2.1438,2.1432,2.1427,2.1423,2.1424,2.142,2.1423,2.1414,2.1422,2.1409,2.1417,2.1413,2.1412,2.1411,2.141,2.1419,2.1402,2.1377,2.1374,2.1409,2.1409,2.141,0,2.1452,2.1443,2.1433,2.1431,2.1428,2.1423,2.1421,2.1418,2.1414,2.1409,2.1407,2.1401,2.1397,2.1392,2.1393,2.1399,2.1379,2.1388,2.1378,2.1378,2.1373,2.1374,2.1346,2.1372,2.1372,2.1372,2.1372,0,2.1433,2.1424,2.1426,2.1419,2.1409,2.1411,2.1401,2.14,2.1397,2.139,2.1394,2.1388,2.139,2.1383,2.1383,2.1372,2.137,2.137,2.137,2.1369,2.1369,2.1366,2.1367,2.1372,2.1372,2.1372,2.1372,0,2.1413,2.1414,2.1403,2.1401,2.14,2.1393,2.139,2.1384,2.1384,2.1375,2.1373,2.1373,2.1365,2.1365,2.1357,2.1357,2.1342,2.1345,2.1344,2.1344,2.1333,2.1334,2.1302,2.1298,2.1328,2.1328,2.1327,0,2.14,2.1393,2.139,2.1386,2.1384,2.1377,2.1373,2.1375,2.1371,2.1366,2.136,2.1352,2.1346,2.1333,2.1332,2.1325,2.1326,2.1315,2.1325,2.1324,2.1325,2.1325,2.1324,2.1313,2.1313,2.1313,2.1312,0,2.1377,2.1378,2.1372,2.1366,2.1361,2.1357,2.1352,2.1349,2.135,2.1345,2.1337,2.1332,2.1323,2.1315,2.1308,2.1306,2.1309,2.1309,2.1307,2.1305,2.1304,2.1304,2.1337,2.131,2.131,2.131,2.1311,2.1311,2.136,2.1353,2.135,2.1343,2.134,2.1336,2.133,2.1329,2.1322,2.1315,2.1316,2.1307,2.1303,2.1294,2.1291,2.1283,2.1287,2.1283,2.1282,2.1281,2.1279,2.1306,2.1282,2.1282,2.1282,2.1282,2.1282,0,2.1336,2.1334,2.1328,2.1321,2.1316,2.132,2.1315,2.131,2.1302,2.1298,2.1292,2.1282,2.1274,2.1272,2.1264,2.1258,2.1259,2.1256,2.1256,2.1255,2.1277,2.1279,2.1255,2.1255,2.1255,2.1255,2.1255,2.1255,2.1323,2.1312,2.1312,2.1299,2.1297,2.1288,2.1285,2.1281,2.1278,2.1267,2.126,2.1259,2.1255,2.1247,2.124,2.1239,2.1236,2.1232,2.1231,2.1251,2.1254,2.1257,2.1259,2.1231,2.1231,2.1211,2.1211,2.121]}]]